ATLAS 5 CENTAUR DEB, 43981

Orbit data source: Space-Track

ATLAS 5 CENTAUR DEB, 43981 is space debris in HEO originally from a launch on Wed, 17 Sep 2014 UTC launched from the Air Force Eastern Test Range (AFETR). Debris objects in space refer to the collection of defunct objects orbiting the Earth. Examples of debris include non-operational satellites, rocket bodies, and fragments generated from explosions, collisions, or faulty payload assembly.

Loading next visibility...
ATLAS 5 CENTAUR DEB details
Identifier
43981, 2014-055AL
Orbit
HEO
Last TLE update2 days ago
Origin
Flag of USULA (US)
ManufacturerUnknown
MissionSpacecraft
Bus & MotorUnknown
MassUnknown
Launch date (UTC)
2014-09-17 (10 years ago)
Launch vehicleUnknown
Launch site
Air Force Eastern Test Range (AFETR)
Object type
Payload
Rocket body
Debris
Shape & HBRUnknown
Radar Cross SectionSmall (<0.1 m²)

Expand to show TLE details & history

TLE from 2 days ago
0 ATLAS 5 CENTAUR DEB
1 43981U 14055AL  24359.18813014 -.00000023  00000-0  00000-0 0  9995
2 43981  19.3625 193.4333 5233351  73.2501 336.2018  1.78796480 41120
Epoch: 2024-12-24T04:30Z
Definitive object data (Epoch: 2024-12-24T04:30:54.444Z)
Latitude-0.00009°
Longitude32.52945°
Altitude11,683.204 km
Speed5.499 km/s
True Right ascension12h 53m 49s
True Declination0° 00' 00"
Sunlit
Object was in daylight at TLE epoch
Visualization TLE readout
Latitude11.79345°
Longitude68.66843°
Altitude8,200.398 km
Speed6.386 km/s
Apparent Right ascension16h 37m 48s
Apparent Declination-4° 27' 06"
Sunlit
Object is in daylight
Visualization observer readout
Local Sidereal Time10:04:47
Azimuth88.123° E
Elevation-9.184°
Doppler factor1
Orbital elements
Apogee altitude37,305.921 km
Perigee altitude7,290.988 km
Semi-major axis28,676.591 km
Eccentricity0.5233351
Inclination19.3625°
RAAN193.4333°
Arg. of periapsis73.2501°
True anomaly286.95977°
Mean anomaly336.2018°
Eccentric anomaly314.99886°
Mean motion0.44694 °/min
BSTARUnknown
Orbital period805.47 mins
Loading maneuver chart data...

ATLAS 5 CENTAUR DEB Visibility forecast

Observer location: undefined°, undefined

Span
Click to sort rows by Start time (UTC) header in descending order
Start Az.
Max El. time (UTC)
Max El. Az.
Max El.
End time (UTC)
End Az.
588 mins2024-12-27 00:55:33.489Z263.528° W2024-12-27 01:54:33.489Z204.563° SW31.329°2024-12-27 10:43:33.489Z206.059° SW
|